TimeEDT,TemperatureF,Dew PointF,Humidity,Sea Level PressureIn,VisibilityMPH,Wind Direction,Wind SpeedMPH,Gust SpeedMPH,PrecipitationIn,Events,Conditions,WindDirDegrees,DateUTC
12:53 AM,33.1,30.0,89,30.08,10.0,Calm,Calm,-,N/A,,Clear,0,2013-10-28 04:53:00
1:53 AM,33.1,30.9,92,30.09,10.0,East,3.5,-,N/A,,Clear,100,2013-10-28 05:53:00
2:53 AM,32.0,30.0,92,30.09,10.0,Calm,Calm,-,N/A,,Clear,0,2013-10-28 06:53:00
3:53 AM,33.1,30.9,92,30.10,10.0,Calm,Calm,-,N/A,,Mostly Cloudy,0,2013-10-28 07:53:00
4:53 AM,33.1,32.0,96,30.11,10.0,Calm,Calm,-,N/A,,Clear,0,2013-10-28 08:53:00
5:53 AM,32.0,30.9,96,30.13,10.0,Calm,Calm,-,N/A,,Clear,0,2013-10-28 09:53:00
6:53 AM,30.0,30.0,100,30.15,10.0,Calm,Calm,-,N/A,,Clear,0,2013-10-28 10:53:00
7:53 AM,30.0,30.0,100,30.18,8.0,Calm,Calm,-,N/A,,Partly Cloudy,0,2013-10-28 11:53:00
8:53 AM,30.0,30.0,100,30.22,6.0,Calm,Calm,-,N/A,,Clear,0,2013-10-28 12:53:00
9:53 AM,39.9,35.1,83,30.25,10.0,NE,3.5,-,N/A,,Clear,50,2013-10-28 13:53:00
10:53 AM,45.0,37.0,74,30.27,10.0,East,9.2,-,N/A,,Clear,80,2013-10-28 14:53:00
11:53 AM,50.0,39.0,66,30.28,10.0,East,10.4,-,N/A,,Clear,80,2013-10-28 15:53:00
12:53 PM,53.1,39.0,59,30.28,10.0,ENE,5.8,-,N/A,,Clear,70,2013-10-28 16:53:00
1:53 PM,54.0,39.0,57,30.28,10.0,ENE,6.9,-,N/A,,Clear,60,2013-10-28 17:53:00
2:53 PM,55.0,37.9,53,30.27,10.0,ENE,4.6,-,N/A,,Clear,70,2013-10-28 18:53:00
3:53 PM,55.0,37.9,53,30.27,10.0,East,5.8,-,N/A,,Clear,80,2013-10-28 19:53:00
4:53 PM,55.0,39.0,55,30.27,10.0,ENE,6.9,-,N/A,,Mostly Cloudy,60,2013-10-28 20:53:00
5:53 PM,52.0,37.9,59,30.28,10.0,NE,4.6,-,N/A,,Scattered Clouds,50,2013-10-28 21:53:00
6:53 PM,48.0,37.9,68,30.30,10.0,NE,6.9,-,N/A,,Clear,50,2013-10-28 22:53:00
7:53 PM,44.1,36.0,73,30.33,10.0,NE,6.9,-,N/A,,Clear,50,2013-10-28 23:53:00
8:53 PM,42.1,35.1,76,30.35,10.0,ENE,8.1,-,N/A,,Clear,60,2013-10-29 00:53:00
9:53 PM,39.9,34.0,79,30.36,10.0,ENE,6.9,-,N/A,,Clear,60,2013-10-29 01:53:00
10:53 PM,39.0,34.0,82,30.38,10.0,ENE,6.9,-,N/A,,Clear,60,2013-10-29 02:53:00
11:53 PM,37.9,33.1,83,30.38,10.0,ENE,5.8,-,N/A,,Clear,60,2013-10-29 03:53:00